User: anonymous   Login
Location: Unspecified
(0.0000°N, 0.0000°E)
Time: 09:51:25
(UTC+02:00)
Language:

Cosmos 1892 Rocket - Orbit

View from above orbital plane
View from above orbital plane
View from above satellite
View from above satellite

Ground track
Ground track

The orbit data is extracted from the following two-line orbital elements,

1 18422U 87088B   18175.55580230  .00000085  00000-0  75134-5 0  9996
2 18422  82.5105 187.9448 0018129 294.7234 183.1069 14.82973451657003
Epoch (UTC): 24 June 2018 13:20:21
Eccentricity: 0.0018129
inclination: 82.5105°
perigee height: 607 km
apogee height: 632 km
right ascension of ascending node: 187.9448°
argument of perigee: 294.7234°
revolutions per day: 14.82973451
mean anomaly at epoch: 183.1069°
orbit number at epoch: 65700

The dashed part of the orbit path shows where the satellite is in the earth's shadow,  

DLR